Flag for Canada Weather past 2 weeks in London, Ontario, Canada

Now
37 °F

Partly sunny.


Feels Like: 28 °F
Forecast: 27 / 42 °F
Wind: 16 mph from West

Location: London Weather Station

Current Time: Mar 30, 2015 at 9:29:49 AM

Latest Report: Mar 30, 2015 at 9:00 AM


Visibility: 15 mi

Pressure: 29.81 "Hg

Humidity: 75%

Dew point: 30 °F

Location of LondonLocation

Historic Weather in London — Graph

°F

London temperature yesterday

Maximum temperature yesterday: 37 °F (at 12:00 PM)
Minimum temperature yesterday: 18 °F (at 12:00 AM)
Average temperature yesterday: 29 °F

Past Weeks' High & Low Weather Summary

 TemperatureHumidityPressure
High50 °F (Mar 16, 4:00 PM)100% (Mar 16, 7:00 AM)30.41 "Hg (Mar 16, 7:00 AM)
Low10 °F (Mar 28, 6:00 AM)32% (Mar 20, 1:00 PM)29.66 "Hg (Mar 30, 3:00 AM)
Average30 °F72%30.11 "Hg
* Reported Mar 15 8:00 AM — Mar 30 8:00 AM, London, Weather by CustomWeather, © 2015

Note: Actual official high and low records may vary slightly from our data, if they occured in-between our weather recording intervals... More about our weather records

Advertising

London weather history for previous 24 hours

 ConditionsComfort  
Time TempWeatherWind HumidityBarometerVisibility
8:00 AM
Mon, Mar 30
36 °FPassing clouds.17 mph81%29.79 "Hg15 mi
7:00 AM36 °FOvercast.16 mph81%29.75 "Hg15 mi
6:00 AM36 °FOvercast.16 mph81%29.73 "Hg12 mi
5:00 AM37 °FOvercast.17 mph75%29.70 "Hg15 mi
4:00 AM37 °FMostly cloudy.17 mph87%29.68 "Hg10 mi
3:00 AM36 °FLight rain. Overcast.14 mph93%29.66 "Hg6 mi
2:00 AM36 °FLight rain. Low clouds.22 mph93%29.67 "Hg6 mi
1:00 AM36 °FLight rain. Overcast.24 mph93%29.71 "Hg6 mi
12:00 AM36 °FSprinkles. Overcast.21 mph81%29.75 "Hg8 mi
11:00 PM
Sun, Mar 29
37 °FOvercast.21 mph65%29.76 "Hg15 mi
10:00 PM34 °FOvercast.17 mph81%29.83 "Hg15 mi
9:00 PM32 °FSnow flurries. Overcast.14 mph93%29.89 "Hg15 mi
8:00 PM32 °FSnow flurries. Mostly cloudy.17 mph93%29.90 "Hg1 mi
7:00 PM37 °FOvercast.16 mph45%29.92 "Hg15 mi
6:00 PM36 °FOvercast.21 mph48%29.92 "Hg15 mi
5:00 PM37 °FOvercast.21 mph45%29.97 "Hg15 mi
4:00 PM36 °FMostly cloudy.24 mph44%30.04 "Hg15 mi
3:00 PM37 °FPartly sunny.26 mph41%30.09 "Hg15 mi
2:00 PM37 °FPartly sunny.22 mph41%30.16 "Hg15 mi
1:00 PM37 °FScattered clouds.23 mph45%30.20 "Hg15 mi
12:00 PM37 °FPartly sunny.21 mph41%30.22 "Hg15 mi
11:00 AM36 °FScattered clouds.16 mph44%30.27 "Hg15 mi
10:00 AM32 °FScattered clouds.12 mph55%30.28 "Hg15 mi
9:00 AM27 °FScattered clouds.7 mph74%30.29 "Hg15 mi
Weather by CustomWeather, © 2015

See weather overviewHow to use our weather pages